Long Beach, CA

4:19 AM PDT on April 26, 2017 (GMT -0700)
North Long Beach | | Change Station
Active Advisory: Beach Hazard Statement Active Notice: Public Information Statement

Elev 52 ft 33.86 °N, 118.18 °W | Updated 28 seconds ago

Clear
Clear
58.6 °F
Feels Like 58.6 °F
N
0.0
Wind Variable Wind from ESE
Gusts 0.0 mph

Today
High -- | Low -- °F
--% Chance of Precip.
Yesterday
High -- | Low -- °F
Precip. -- in
Pressure 29.88 in
Visibility 9.0 miles
Clouds Clear
Dew Point 55 °F
Humidity 88%
Rainfall 0.00 in
Snow Depth Not available.
6:08 AM 7:32 PM
Waning Crescent, 0% visible
METAR KLGB 261053Z 00000KT 9SM CLR 15/11 A2988 RMK AO2 SLP117 T01500111
Pressure 29.88 in
Visibility 9.0 miles
Clouds Clear
Dew Point 55 °F
Humidity 88%
Rainfall 0.00 in
Snow Depth Not available.
6:08 AM 7:32 PM
Waning Crescent, 0% visible
METAR KLGB 261053Z 00000KT 9SM CLR 15/11 A2988 RMK AO2 SLP117 T01500111

Get Your Daily Forecast Email!

Thanks for signing up!

Be on the lookout for a verification email in your inbox.

You'll start receiving severe weather alerts in your inbox..

×

10-Day Weather Forecast

Almanac

Astronomy

Apr. 26, 2017 Rise Set
Actual Time
Civil Twilight
Nautical Twilight
Astronomical Twilight
Moon
Length of Visible Light
Length of Day
Tomorrow will be .
, % of the Moon is Illuminated

Today's Extremes

State Highs State Lows

Community

WunderPhotos

WunderBlog® & News

Nearby

Air Quality

  Air Quality AQ Index Pollutant
Not available.

Snow Depth

Station Depth Elevation

Earthquake Activity

City Distance Mag. Time & Date
Minimum magnitude displayed is 2.5.

Coastal Water Temperatures

Place Temperature

Stations

Nearby Weather Stations

Station Location Temp. Windchill Dew Point Humidity Wind Precip. Elev Updated Type
                   

Watches & Warnings

Beach Hazard Statement
Issued: 5:16 PM PDT Apr. 25, 2017 – National Weather Service

... Beach hazards statement in effect through Friday evening...

The National Weather Service in Los Angeles/Oxnard has issued a
beach hazards statement for elevated surf and strong rip currents,
which is in effect through Friday evening.

* Hazards... dangerous rip currents and breaking waves are expected
due to elevated surf of 3 to 6 feet. Local sets to 8 feet are
possible. Highest surf is expected each afternoon and evening on
west-facing beaches.

* Impacts... there is an increased risk of ocean drowning. Rip
currents can pull swimmers and surfers out to sea. Waves can
wash people off beaches and rocks... and capsize small boats
nearshore.

Precautionary/preparedness actions...

A beach hazards statement is issued when threats such as rip
currents... longshore currents... sneaker waves and other hazards
create life-threatening conditions in the surf zone. Swim near a
lifeguard. If caught in a rip current, relax and float. Don't
swim against the current. If able, swim in a direction following
the shoreline. If unable to escape, face the shore and call or
wave for help.



Sirard